Terug naar catalogus

NOAA 16 DEB

ActiefSSO
NORAD 41049·DEBRIS·🇺🇸 United States

Gelanceerd Sep 21, 2000 vanaf Vandenberg Space Force Base

Loading…

Volgende Passages (komende 24 uur)

TLE

VersSource: Space-Track

Epoch: Sep 14, 2026, 14:39 UTC

1 41049U 00055G   26257.61046504  .00001851  00000-0  76882-3 0  9995
2 41049  98.6282 318.4668 0004887 255.8155 104.2484 14.27646502558445

Volg NOAA 16 DEB in realtime met AllMySat

Download on the App Store